Showing default

COSMOS 2491, 39497

Orbit data source: Space-Track

COSMOS 2491, 39497 is a payload satellite owned by TsNIIKhM (CIS) in LEO that was launched on Wed, 25 Dec 2013 UTC via an ROKOT launch vehicle from the Plesetsk Missile And Space Complex (PKMTR). Payload-class satellites include a variety of spacecraft equipped with specific instruments for various scientific and technological missions. These include communications satellites like Starlink; space stations such as the ISS; scientific satellites like the Hubble; Earth observation satellites from companies like Planet Labs, Umbra, and HawkEye 360; GPS; miniature CubeSats for education and research; and military/defense satellites.

Loading next visibility...
Identifier
39497, 2013-076E
Orbit
LEO
Country
Flag of CISCIS
Related business
Manufacturer
TsNIIKhM
Mission
Non-operational Defense Technology
Bus & Motor
NIVELIR, Unknown motor
Mass
~100 kg wet, ~100 kg dry
Launch date (UTC)
2013-12-25 (13 years ago)
Launch vehicle
ROKOT
Launch site
Plesetsk Missile And Space Complex (PKMTR)
Object type
Payload
Rocket body
Debris
Shape & HBR
Hex Box, 0.5 m
Radar Cross Section
0.900 m², Medium (>0.1 m² and < 1m²)

Expand to show TLE details & history
Last TLE update: 15 hours ago

TLE from 15 hours ago
0 COSMOS 2491
1 39497U 13076E   26209.21154721  .00000006  00000-0 -27965-4 0  9991
2 39497  82.4880 142.6455 0013534   6.4541 353.6710 12.43497799570357
Epoch: 2026-07-28T05:04Z
TLE epoch observation values (Epoch: 2026-07-28T05:04:37.678Z)
Latitude
-0.00013°
Longitude
120.60447°
Altitude
1,483.923 km
Speed
7.126 km/s
True Right ascension
09h 30m 34s
True Declination
0° 00' 00"
Sunlit
Object was in daylight at epoch
Visualization orbit readout
Latitude
Unknown
Longitude
Unknown
Altitude
Unknown
Speed
Unknown
Apparent Right ascension
Unknown
Apparent Declination
Unknown
Sunlit
N/A
Visualization observer readout
Local Sidereal Time
09:52:35
Azimuth
Unknown
Elevation
Unknown
Doppler factor
Unknown
Orbital elements
Apogee altitude
1,499.809 km
Perigee altitude
1,478.514 km
Semi-major axis
7,867.298 km
Eccentricity
0.00135
Inclination
82.488°
RAAN
142.6455°
Arg. of periapsis
6.4541°
True anomaly
353.65387°
Mean anomaly
353.671°
Eccentric anomaly
353.66244°
Mean motion
3.11032 °/min
Orbital period
115.74 mins
BSTAR
-0.000027965
Loading maneuver chart data...
Computing Atmospheric mass density...
Loading historical data...
Loading historical data...
Loading historical data...
Loading historical data...
Loading historical data...
Loading historical data...
Loading historical data...

Documentation

Showing up to 5 results
|